Temp
-16 -16 -16 -16 -16 -16 -16 -16 -16 -15 -15 -15 -15 -15 -15 -15 -15 -15 -15 -14 -14 -15 -15 -15 -16 -16 -16 -16 -16 -16 -16 -16 -16 -16 -17 -16 -16 -16
-17 -17 -17 -17 -16 -16 -16 -17 -16 -16 -16 -15 -15 -15 -15 -15 -15 -16 -15 -14 -14 -14 -16 -16 -15 -16 -16 -16 -16 -16 -16 -15 -16 -16 -16 -16 -16 -16
-16 -16 -17 -17 -17 -17 -17 -17 -17 -16 -16 -16 -16 -15 -15 -15 -16 -16 -15 -15 -15 -15 -15 -16 -16 -16 -15 -15 -15 -15 -16 -16 -16 -16 -16 -17 -17 -17
-16 -16 -16 -17 -17 -17 -17 -18 -17 -17 -18 -17 -16 -16 -16 -16 -15 -15 -15 -15 -15 -15 -16 -17 -16 -15 -16 -16 -16 -16 -16 -16 -16 -16 -17 -16 -17 -17
-18 -18 -17 -17 -17 -17 -18 -18 -18 -18 -18 -18 -18 -17 -17 -17 -16 -16 -16 -16 -15 -16 -16 -17 -17 -17 -17 -17 -17 -17 -17 -17 -16 -16 -16 -17 -17 -18
-23 -21 -21 -20 -20 -17 -19 -18 -17 -17 -18 -18 -18 -18 -18 -18 -18 -18 -17 -17 -16 -17 -17 -17 -17 -17 -18 -18 -18 -18 -18 -17 -18 -18 -18 -18 -18 -18
-24 -23 -22 -21 -20 -20 -17 -18 -17 -17 -18 -19 -19 -18 -18 -19 -17 -17 -18 -19 -18 -18 -18 -18 -18 -18 -19 -19 -18 -19 -19 -19 -19 -20 -19 -19 -20 -19
-23 -24 -23 -22 -21 -20 -19 -19 -20 -19 -19 -19 -19 -19 -19 -19 -18 -19 -20 -19 -19 -19 -19 -19 -19 -19 -19 -19 -20 -20 -19 -20 -20 -20 -20 -20 -20 -21
-23 -23 -23 -22 -21 -21 -21 -20 -20 -20 -19 -19 -19 -19 -19 -19 -19 -19 -19 -20 -20 -20 -20 -20 -20 -20 -20 -20 -20 -20 -20 -20 -20 -20 -20 -21 -21 -21
-24 -23 -22 -22 -22 -22 -21 -21 -21 -21 -20 -20 -20 -20 -20 -20 -20 -21 -21 -20 -20 -20 -20 -20 -20 -20 -20 -21 -21 -21 -21 -21 -20 -20 -20 -21 -21 -21
-24 -23 -23 -23 -23 -23 -22 -22 -22 -22 -21 -22 -21 -21 -21 -21 -22 -21 -21 -22 -23 -22 -22 -21 -21 -21 -20 -21 -21 -21 -21 -21 -21 -21 -21 -21 -21 -22
-24 -24 -24 -23 -24 -23 -23 -22 -22 -22 -22 -22 -22 -22 -22 -22 -22 -22 -22 -22 -23 -23 -22 -22 -21 -21 -21 -21 -21 -21 -21 -21 -22 -22 -22 -23 -23 -24
-24 -24 -24 -24 -24 -23 -23 -23 -23 -23 -22 -22 -22 -22 -22 -22 -22 -22 -22 -22 -22 -22 -22 -22 -22 -22 -22 -22 -22 -22 -23 -23 -24 -24 -24 -24 -24 -25
-25 -25 -24 -24 -24 -24 -24 -24 -23 -23 -23 -23 -23 -23 -23 -24 -24 -23 -23 -22 -22 -22 -22 -22 -22 -22 -22 -23 -24 -24 -24 -24 -24 -25 -25 -25 -25 -25
-26 -26 -26 -26 -25 -25 -25 -25 -24 -24 -24 -24 -24 -24 -24 -24 -23 -23 -23 -23 -23 -23 -23 -23 -24 -24 -24 -24 -24 -24 -25 -25 -25 -26 -26 -26 -26 -26
-27 -27 -27 -27 -26 -26 -26 -25 -25 -25 -25 -25 -25 -24 -24 -24 -24 -24 -24 -24 -24 -24 -24 -24 -25 -25 -25 -25 -25 -26 -26 -27 -27 -27 -27 -27 -27 -27
-28 -27 -27 -28 -27 -27 -26 -26 -26 -26 -25 -25 -25 -25 -25 -25 -25 -25 -25 -25 -25 -25 -26 -26 -26 -26 -26 -26 -26 -27 -27 -27 -28 -28 -28 -28 -28 -28
-28 -28 -27 -27 -27 -27 -26 -26 -26 -26 -26 -26 -26 -26 -26 -25 -26 -26 -26 -26 -26 -26 -26 -27 -27 -27 -27 -28 -28 -28 -29 -29 -29 -29 -29 -28 -28 -29
-27 -27 -27 -27 -27 -27 -27 -26 -26 -26 -26 -26 -27 -26 -26 -26 -26 -27 -27 -27 -27 -27 -27 -28 -28 -28 -28 -28 -29 -28 -29 -29 -29 -29 -29 -29 -29 -29
-27 -27 -27 -27 -27 -27 -27 -27 -27 -27 -27 -27 -27 -27 -27 -27 -27 -27 -28 -28 -28 -28 -29 -29 -29 -29 -29 -29 -29 -30 -29 -29 -29 -29 -29 -29 -29 -29
-27 -27 -27 -27 -27 -27 -27 -27 -27 -27 -27 -27 -27 -27 -27 -28 -28 -28 -28 -29 -29 -29 -29 -29 -29 -29 -30 -29 -29 -29 -30 -30 -30 -30 -30 -30 -31 -31
-28 -28 -27 -27 -27 -27 -27 -27 -27 -28 -28 -28 -28 -28 -28 -28 -29 -29 -29 -29 -29 -29 -29 -30 -30 -30 -30 -30 -30 -30 -30 -31 -31 -31 -32 -32 -33 -32
-28 -28 -28 -28 -28 -28 -28 -28 -28 -28 -28 -29 -29 -29 -29 -29 -29 -29 -29 -29 -30 -30 -30 -30 -31 -31 -31 -31 -31 -31 -31 -32 -33 -33 -34 -34 -34 -34
Height
5660 5658 5655 5657 5659 5661 5662 5656 5663 5666 5668 5669 5673 5674 5674 5669 5677 5674 5676 5674 5670 5670 5673 5677 5678 5681 5682 5685 5686 5688 5689 5690 5689 5691 5691 5691 5692 5693
5639 5638 5636 5635 5637 5641 5642 5637 5641 5644 5649 5651 5656 5657 5656 5656 5659 5658 5661 5656 5654 5653 5654 5662 5665 5667 5668 5670 5671 5672 5673 5675 5676 5675 5675 5676 5676 5675
5617 5615 5616 5616 5614 5618 5623 5619 5621 5624 5627 5630 5637 5639 5638 5636 5641 5640 5644 5640 5641 5640 5638 5646 5649 5650 5652 5652 5654 5655 5656 5658 5658 5657 5658 5658 5659 5659
5583 5582 5585 5587 5590 5595 5600 5601 5603 5606 5608 5609 5613 5621 5620 5616 5621 5623 5624 5624 5625 5625 5624 5627 5627 5627 5631 5634 5635 5638 5639 5639 5641 5641 5640 5641 5640 5642
5540 5542 5550 5553 5561 5569 5575 5580 5581 5586 5589 5592 5592 5600 5596 5599 5602 5604 5604 5604 5607 5604 5604 5607 5609 5611 5613 5616 5618 5620 5621 5621 5623 5623 5623 5623 5623 5624
5501 5506 5515 5526 5535 5546 5541 5555 5555 5559 5562 5569 5571 5573 5576 5579 5580 5582 5585 5585 5587 5586 5588 5591 5594 5596 5599 5599 5600 5601 5605 5605 5606 5606 5608 5610 5609 5609
5484 5486 5492 5500 5509 5523 5523 5531 5538 5540 5544 5550 5550 5556 5560 5561 5560 5564 5564 5565 5567 5571 5573 5576 5579 5582 5583 5585 5585 5586 5589 5590 5590 5592 5594 5595 5594 5596
5472 5475 5481 5490 5496 5500 5506 5512 5517 5517 5524 5530 5532 5537 5538 5540 5542 5545 5547 5550 5554 5559 5559 5562 5563 5567 5569 5572 5573 5573 5576 5577 5577 5577 5578 5579 5578 5578
5464 5467 5470 5475 5480 5488 5491 5496 5501 5505 5511 5515 5516 5520 5523 5527 5531 5532 5535 5538 5541 5544 5546 5550 5552 5555 5558 5557 5559 5561 5560 5562 5563 5563 5562 5562 5561 5560
5458 5460 5463 5469 5474 5477 5480 5485 5489 5491 5494 5500 5502 5507 5510 5513 5517 5519 5523 5527 5532 5532 5535 5538 5538 5542 5545 5545 5546 5547 5547 5548 5548 5546 5545 5544 5542 5540
5458 5459 5461 5464 5466 5468 5471 5475 5479 5480 5484 5488 5493 5499 5500 5503 5504 5508 5511 5515 5519 5522 5524 5529 5529 5532 5532 5534 5532 5531 5533 5533 5532 5529 5528 5527 5525 5523
5460 5457 5454 5456 5460 5462 5463 5467 5471 5474 5477 5481 5487 5489 5492 5494 5495 5498 5500 5506 5509 5513 5516 5520 5518 5519 5519 5518 5517 5517 5517 5514 5512 5510 5509 5508 5508 5506
5456 5457 5456 5457 5457 5457 5458 5460 5463 5468 5471 5474 5478 5481 5484 5486 5488 5490 5492 5498 5501 5502 5503 5504 5504 5504 5504 5502 5501 5498 5496 5494 5493 5492 5491 5492 5492 5489
5450 5450 5451 5451 5453 5455 5456 5457 5460 5463 5466 5467 5469 5472 5474 5476 5478 5482 5485 5488 5489 5489 5490 5490 5489 5487 5485 5484 5483 5480 5478 5477 5476 5474 5473 5473 5472 5471
5444 5443 5443 5444 5445 5447 5449 5452 5453 5456 5458 5461 5462 5464 5467 5471 5473 5475 5476 5476 5477 5475 5475 5474 5473 5471 5470 5468 5467 5464 5463 5460 5458 5457 5456 5455 5454 5453
5437 5437 5437 5437 5439 5440 5443 5444 5446 5448 5451 5453 5455 5457 5459 5462 5461 5463 5463 5463 5463 5463 5461 5460 5459 5457 5456 5454 5452 5450 5448 5445 5442 5440 5439 5438 5436 5433
5432 5431 5431 5432 5433 5435 5437 5438 5439 5441 5443 5446 5447 5449 5449 5450 5451 5452 5452 5452 5452 5450 5450 5448 5447 5446 5443 5440 5439 5436 5432 5429 5426 5425 5423 5421 5417 5413
5428 5427 5428 5428 5428 5429 5430 5432 5433 5434 5436 5437 5438 5439 5441 5443 5444 5444 5444 5443 5442 5441 5439 5437 5434 5432 5430 5427 5424 5421 5416 5412 5409 5406 5402 5399 5397 5391
5425 5424 5424 5423 5423 5423 5423 5425 5427 5428 5429 5430 5432 5434 5435 5436 5437 5435 5434 5432 5430 5429 5427 5425 5422 5419 5415 5412 5408 5406 5400 5395 5390 5386 5380 5375 5372 5367
5422 5421 5420 5419 5420 5421 5422 5422 5423 5424 5424 5426 5428 5429 5429 5428 5427 5425 5423 5420 5417 5415 5413 5411 5409 5404 5399 5397 5392 5386 5378 5373 5366 5361 5354 5349 5345 5338
5418 5418 5418 5418 5418 5418 5419 5419 5419 5420 5420 5421 5420 5420 5419 5418 5416 5413 5411 5409 5408 5406 5403 5398 5395 5389 5384 5378 5373 5365 5357 5348 5341 5333 5326 5320 5314 5310
5415 5414 5414 5413 5413 5413 5413 5413 5413 5412 5412 5412 5411 5410 5409 5408 5407 5405 5404 5402 5399 5395 5390 5384 5378 5372 5366 5359 5352 5344 5334 5325 5314 5306 5298 5288 5280 5278
5409 5408 5408 5407 5406 5406 5406 5406 5405 5405 5405 5404 5404 5403 5402 5401 5399 5397 5394 5391 5386 5380 5374 5368 5361 5354 5346 5336 5327 5318 5308 5299 5289 5283 5276 5262 5254 5246
Wind_Speed
76 79 78 78 78 78 75 75 74 73 71 71 67 66 71 68 61 56 56 64 69 64 82 72 69 66 64 65 64 62 60 59 58 60 61 61 60 60
73 76 80 82 84 82 77 76 73 72 67 68 66 64 67 69 58 57 61 61 65 59 65 72 69 69 66 66 67 67 66 68 69 66 66 65 68 65
84 85 84 83 84 83 79 80 79 74 72 71 69 66 69 67 57 62 64 61 64 56 53 67 64 68 67 71 71 64 62 63 69 69 68 65 65 67
97 97 97 94 89 89 86 85 84 74 73 75 70 63 72 68 70 70 70 73 65 64 58 62 71 75 74 70 63 58 57 55 58 59 59 63 68 69
99 95 90 91 90 92 88 92 84 84 85 85 73 72 71 74 80 78 77 74 70 72 69 69 70 63 59 61 61 61 57 56 59 63 64 60 57 57
63 75 85 77 74 68 74 71 81 70 71 81 81 82 84 80 81 79 78 75 74 70 64 59 59 59 57 54 53 53 60 57 53 52 50 51 50 52
48 52 59 61 54 73 66 72 80 91 89 78 74 75 83 84 80 81 75 69 65 61 57 55 54 56 55 54 51 51 48 47 44 47 51 53 53 57
36 48 47 56 68 56 69 72 53 53 66 64 60 65 67 68 70 64 58 52 51 52 52 50 47 49 44 44 46 46 48 51 53 55 55 56 57 61
43 41 42 39 38 48 45 48 48 40 51 55 49 51 54 56 55 49 48 44 43 42 42 43 47 48 45 49 52 53 53 55 58 59 59 58 60 63
15 22 32 34 33 39 41 43 44 45 44 46 43 46 42 42 41 36 40 44 42 43 44 45 47 47 48 52 56 57 57 57 59 60 60 62 65 67
16 18 20 24 23 22 23 29 33 32 33 34 37 39 35 34 36 40 39 33 32 34 38 42 48 49 51 53 54 53 56 60 60 62 63 64 67 69
12 12 13 17 18 17 22 25 29 30 31 31 32 32 32 34 38 36 34 35 36 41 46 49 51 51 53 56 58 59 61 65 66 67 65 63 61 62
21 18 17 18 21 24 27 29 29 32 33 35 35 35 35 35 35 35 39 41 44 47 51 49 51 53 55 57 60 61 62 61 60 58 56 58 59 62
29 29 28 25 23 23 21 23 27 29 34 32 30 29 29 29 32 35 39 42 44 49 50 54 55 57 57 57 57 56 57 57 57 56 56 57 57 58
28 31 31 31 29 28 28 28 27 26 26 26 26 28 31 35 38 41 44 46 49 49 50 51 51 50 52 53 56 58 59 59 57 56 55 55 56 59
23 27 30 30 30 31 32 31 32 33 34 35 34 34 35 38 37 40 41 43 43 44 44 45 46 47 48 49 49 49 48 48 50 51 54 56 60 63
19 23 23 25 27 28 26 27 29 30 32 33 32 32 31 31 32 34 34 36 35 35 35 36 39 42 44 46 48 51 54 56 57 59 61 63 65 68
14 15 16 14 18 24 24 22 23 24 23 24 25 26 28 29 27 27 28 30 33 35 36 38 41 44 46 48 51 54 56 59 61 63 65 67 68 71
12 12 22 23 19 18 18 18 18 19 18 17 19 20 22 25 27 29 31 32 33 35 37 39 42 44 46 49 54 56 59 63 66 68 72 73 76 78
16 13 12 11 10 11 12 12 14 15 16 18 20 22 24 26 28 28 29 30 32 35 38 41 45 47 52 55 57 61 67 70 72 75 78 81 83 85
14 14 14 13 14 14 16 17 19 20 20 21 23 23 25 26 27 28 29 32 36 39 42 46 49 53 56 61 64 68 72 76 78 79 80 81 81 80
20 19 21 22 20 19 20 20 20 21 21 22 22 23 24 25 27 29 32 36 39 44 48 52 55 59 63 66 70 73 74 74 75 77 78 80 81 80
23 23 22 20 20 20 21 21 20 20 20 19 20 22 24 26 29 33 37 41 46 50 54 57 61 65 69 73 76 75 74 75 76 75 74 77 76 75
Wind_Direction
269 270 272 271 269 268 267 267 268 267 268 271 271 270 269 273 273 267 282 285 287 278 264 261 264 262 262 263 264 267 269 269 270 269 270 271 272 272
269 268 269 269 269 268 268 267 267 268 268 266 266 265 269 272 269 269 279 284 284 269 269 259 264 262 265 262 265 265 267 271 272 271 270 272 272 271
269 266 265 265 268 268 268 267 268 266 267 264 263 266 269 267 263 270 274 284 276 270 267 261 267 268 266 265 267 268 265 269 271 272 270 269 271 273
271 267 264 258 256 257 263 264 265 264 265 263 260 261 258 259 267 271 272 276 269 271 272 263 266 257 260 261 258 263 264 268 273 273 270 269 270 273
272 266 262 259 260 256 254 257 259 262 260 262 263 260 263 265 265 264 263 264 263 265 262 260 260 258 253 256 259 259 264 267 267 268 269 270 270 269
263 254 247 247 245 251 248 254 252 254 245 256 258 254 254 257 261 261 259 259 259 260 260 255 253 256 256 260 263 265 265 266 268 270 271 274 274 272
265 242 244 242 238 238 242 244 249 250 253 256 252 256 259 257 253 256 253 254 254 252 250 251 254 255 258 260 260 260 261 265 263 271 274 274 272 272
271 246 247 246 234 239 239 243 238 240 246 251 249 247 251 249 249 247 247 249 252 253 253 252 254 256 255 259 261 260 261 265 270 271 270 271 272 273
257 268 254 250 236 246 242 236 248 252 238 249 252 249 247 246 244 248 250 249 245 244 247 249 251 251 257 260 262 263 264 265 266 269 271 274 275 276
267 260 250 245 245 246 244 245 240 252 254 252 250 247 240 241 242 237 238 241 243 247 250 253 259 262 261 262 263 266 269 268 269 273 275 276 276 277
278 256 246 241 236 227 234 239 235 228 234 234 234 233 228 228 231 237 243 249 256 261 263 260 264 262 262 263 267 270 271 271 272 277 277 276 277 275
277 263 248 237 231 228 227 232 235 231 226 228 231 233 239 241 243 246 248 251 256 259 261 265 268 269 269 268 269 270 272 272 273 274 275 276 274 272
269 272 263 251 248 240 234 233 234 232 229 230 236 241 245 248 252 254 253 254 261 264 266 266 267 269 269 269 269 271 272 272 273 274 276 276 277 276
275 261 250 251 259 261 249 241 240 240 245 238 238 242 246 250 253 256 257 259 260 262 264 267 270 271 271 272 273 273 272 272 273 274 274 273 274 275
274 270 261 250 248 246 248 250 252 255 258 256 254 254 255 254 252 253 255 258 260 265 269 270 272 274 273 275 276 276 276 274 273 273 274 276 277 276
271 255 252 249 246 247 246 245 245 244 244 245 245 246 248 250 254 258 261 262 263 266 270 274 276 278 278 278 279 279 280 280 280 280 280 279 278 278
277 280 256 255 255 251 250 252 249 247 247 246 246 249 255 259 263 264 266 267 269 273 276 278 279 279 281 283 283 284 284 284 283 282 281 280 280 279
296 251 238 247 256 259 255 255 253 251 258 257 257 258 259 259 260 264 267 271 272 274 276 278 282 283 284 286 286 286 286 286 285 285 284 282 281 280
285 265 258 273 273 262 251 253 253 250 249 245 247 252 258 265 268 270 273 276 279 281 283 284 285 285 286 287 287 286 287 286 285 285 284 283 282 282
276 281 268 247 246 253 253 252 253 258 266 269 265 263 266 270 274 277 281 286 289 291 292 292 292 294 293 293 292 293 290 289 288 288 286 285 284 283
272 262 265 272 274 268 269 269 266 263 262 267 271 276 279 281 285 290 294 295 294 295 295 296 296 296 296 295 295 295 295 294 292 290 288 287 286 285
272 270 271 273 274 272 270 268 269 274 277 279 282 285 288 290 294 296 297 297 298 299 299 299 300 300 301 301 300 299 298 296 295 294 293 292 291 289
277 277 276 273 272 274 275 276 277 278 280 282 287 290 293 295 298 299 300 302 304 305 305 305 305 305 305 305 305 303 301 299 296 295 294 293 293 292